Newport Airport, OR

2:06 AM PDT on July 23, 2017 (GMT -0700)
Newport Municipal

Weather History for KONP - April, 2013

Change the Weather History Date:

Sunday, April 28, 2013

  Actual Average Record
Temperature  
Mean Temperature 52 °F -  
Max Temperature 55 °F 54 °F 66 °F (1998)
Min Temperature 48 °F 44 °F 33 °F (1999)
Degree Days  
Heating Degree Days 14    
Growing Degree Days 2 (Base 50)    
Moisture  
Dew Point 48 °F    
Average Humidity 90    
Maximum Humidity 100    
Minimum Humidity 77    
Precipitation  
Precipitation 0.02 in - - ()
Sea Level Pressure  
Sea Level Pressure 30.30 in    
Wind  
Wind Speed 5 mph (WSW)    
Max Wind Speed 15 mph    
Max Gust Speed 21 mph    
Visibility 7 miles    
Events Rain    
Averages and records for this station are not official NWS values.
T = Trace of Precipitation, MM = Missing Value Source: NWS Daily Summary

Daily Weather History Graph

Daily Weather History Graph

Search for Another Location

Airport or City:

Trip Planner

Search our weather history database for the weather conditions in past years. The results will help you decide how hot, cold, wet, or windy it might be!

Date:

Astronomy

Apr. 28, 2013 Rise Set
Actual Time 6:10 AM PDT 8:17 PM PDT
Civil Twilight 5:38 AM PDT 8:49 PM PDT
Nautical Twilight 4:59 AM PDT 9:28 PM PDT
Astronomical Twilight 4:16 AM PDT 10:12 PM PDT
Moon 11:57 PM PDT (4/28) 8:28 AM PDT (4/28)
Length of Visible Light 15h 10m
Length of Day
14h 07m
Waning Gibbous, 88% of the Moon is Illuminated
Apr 28
Waning Gibbous
May 2
Last Quarter
May 9
New
May 17
First Quarter
May 24
Full

Hourly Weather History & Observations

Time (PDT) Temp. Dew Point Humidity Pressure Visibility Wind Dir Wind Speed Gust Speed Precip Events Conditions
12:15 AM 50.0 °F 46.4 °F 87% 30.34 in 5.0 mi Calm Calm - N/A   Overcast
12:35 AM 48.2 °F 46.4 °F 93% 30.33 in 7.0 mi SE 3.5 mph - N/A   Overcast
12:55 AM 50.0 °F 46.4 °F 87% 30.33 in 10.0 mi South 3.5 mph - N/A   Overcast
1:15 AM 48.2 °F 46.4 °F 93% 30.32 in 10.0 mi South 4.6 mph - N/A   Overcast
1:35 AM 48.2 °F 46.4 °F 93% 30.33 in 10.0 mi South 3.5 mph - N/A   Overcast
1:55 AM 50.0 °F 46.4 °F 87% 30.33 in 10.0 mi SSW 3.5 mph - N/A   Overcast
2:15 AM 50.0 °F 46.4 °F 87% 30.33 in 10.0 mi South 4.6 mph - N/A   Overcast
2:35 AM 50.0 °F 46.4 °F 87% 30.32 in 10.0 mi South 4.6 mph - N/A   Overcast
2:55 AM 50.0 °F 46.4 °F 87% 30.32 in 10.0 mi SSW 4.6 mph - N/A   Overcast
3:15 AM 50.0 °F 46.4 °F 87% 30.32 in 10.0 mi SSW 4.6 mph - N/A   Overcast
3:35 AM 50.0 °F 46.4 °F 87% 30.32 in 7.0 mi SW 5.8 mph - N/A   Overcast
3:55 AM 50.0 °F 46.4 °F 87% 30.32 in 7.0 mi SSW 4.6 mph - N/A   Overcast
4:15 AM 50.0 °F 46.4 °F 87% 30.32 in 7.0 mi SSW 4.6 mph - N/A   Overcast
4:35 AM 50.0 °F 46.4 °F 87% 30.32 in 2.5 mi SSW 4.6 mph - N/A   Overcast
4:55 AM 50.0 °F 48.2 °F 94% 30.31 in 1.5 mi SSW 4.6 mph - N/A   Drizzle
5:15 AM 50.0 °F 48.2 °F 94% 30.31 in 1.8 mi SW 4.6 mph - N/A   Heavy Drizzle
5:35 AM 48.2 °F 48.2 °F 100% 30.32 in 1.8 mi SSW 6.9 mph - N/A   Heavy Drizzle
6:15 AM 48.2 °F 48.2 °F 100% 30.32 in 1.8 mi SSW 6.9 mph - N/A   Drizzle
6:35 AM 48.2 °F 48.2 °F 100% 30.32 in 1.0 mi SSW 5.8 mph - N/A   Drizzle
6:55 AM 48.2 °F 48.2 °F 100% 30.31 in 1.8 mi South 6.9 mph - N/A   Drizzle
7:15 AM 50.0 °F 48.2 °F 94% 30.31 in 2.0 mi South 6.9 mph - N/A   Drizzle
7:35 AM 50.0 °F 48.2 °F 94% 30.32 in 2.0 mi South 5.8 mph - N/A   Drizzle
7:55 AM 50.0 °F 50.0 °F 100% 30.32 in 1.5 mi SSW 6.9 mph - 0.01 in   Drizzle
8:15 AM 50.0 °F 50.0 °F 100% 30.33 in 1.2 mi SSW 4.6 mph - N/A   Heavy Drizzle
8:35 AM 50.0 °F 50.0 °F 100% 30.33 in 1.0 mi SW 6.9 mph - N/A   Drizzle
8:55 AM 50.0 °F 50.0 °F 100% 30.34 in 2.5 mi SSW 4.6 mph - N/A   Overcast
9:15 AM 50.0 °F 50.0 °F 100% 30.34 in 1.5 mi Calm Calm - N/A Rain Light Rain
9:35 AM 50.0 °F 50.0 °F 100% 30.34 in 3.0 mi NNW 3.5 mph - N/A   Overcast
9:55 AM 51.8 °F 50.0 °F 94% 30.34 in 5.0 mi WNW 3.5 mph - N/A   Overcast
10:15 AM 51.8 °F 50.0 °F 94% 30.34 in 10.0 mi NNW 5.8 mph - N/A   Overcast
10:35 AM 51.8 °F 50.0 °F 94% 30.35 in 10.0 mi NW 5.8 mph - N/A   Overcast
10:55 AM 51.8 °F 50.0 °F 94% 30.34 in 10.0 mi NNW 6.9 mph - N/A   Overcast
11:15 AM 53.6 °F 50.0 °F 88% 30.34 in 10.0 mi NNW 9.2 mph - N/A   Scattered Clouds
11:35 AM 53.6 °F 50.0 °F 88% 30.35 in 10.0 mi NW 6.9 mph - N/A   Clear
11:55 AM 53.6 °F 50.0 °F 88% 30.34 in 10.0 mi NNW 6.9 mph - N/A   Clear
12:15 PM 53.6 °F 48.2 °F 82% 30.34 in 10.0 mi NW 5.8 mph - N/A   Clear
12:35 PM 55.4 °F 50.0 °F 82% 30.34 in 10.0 mi NW 5.8 mph - N/A   Clear
12:55 PM 53.6 °F 48.2 °F 82% 30.33 in 10.0 mi NW 5.8 mph - N/A   Clear
1:15 PM 53.6 °F 50.0 °F 88% 30.32 in 10.0 mi WNW 5.8 mph - N/A   Clear
1:35 PM 53.6 °F 48.2 °F 82% 30.32 in 10.0 mi West 5.8 mph - N/A   Clear
1:55 PM 53.6 °F 48.2 °F 82% 30.32 in 10.0 mi West 5.8 mph - N/A   Clear
2:15 PM 53.6 °F 50.0 °F 88% 30.32 in 10.0 mi WNW 5.8 mph - N/A   Clear
2:35 PM 53.6 °F 50.0 °F 88% 30.33 in 10.0 mi WNW 6.9 mph - N/A   Clear
2:55 PM 53.6 °F 50.0 °F 88% 30.33 in 10.0 mi West 5.8 mph - N/A   Clear
3:15 PM 53.6 °F 50.0 °F 88% 30.32 in 10.0 mi NW 4.6 mph - N/A   Clear
3:35 PM 53.6 °F 50.0 °F 88% 30.32 in 10.0 mi West 5.8 mph - N/A   Clear
3:55 PM 55.4 °F 50.0 °F 82% 30.31 in 10.0 mi WNW 5.8 mph - N/A   Clear
4:15 PM 53.6 °F 48.2 °F 82% 30.30 in 10.0 mi WNW 6.9 mph - N/A   Clear
4:35 PM 53.6 °F 46.4 °F 77% 30.29 in 10.0 mi WNW 4.6 mph - N/A   Clear
4:55 PM 53.6 °F 46.4 °F 77% 30.28 in 10.0 mi WNW 4.6 mph - N/A   Clear
5:15 PM 55.4 °F 48.2 °F 77% 30.27 in 10.0 mi West 4.6 mph - N/A   Clear
5:35 PM 55.4 °F 48.2 °F 77% 30.28 in 10.0 mi West 5.8 mph - N/A   Scattered Clouds
5:55 PM 53.6 °F 48.2 °F 82% 30.27 in 10.0 mi WSW 5.8 mph - N/A   Scattered Clouds
6:15 PM 53.6 °F 46.4 °F 77% 30.26 in 10.0 mi WSW 4.6 mph - N/A   Scattered Clouds
6:35 PM 53.6 °F 46.4 °F 77% 30.26 in 10.0 mi WSW 5.8 mph - N/A   Scattered Clouds
6:55 PM 51.8 °F 48.2 °F 88% 30.25 in 10.0 mi SW 6.9 mph - N/A   Mostly Cloudy
7:15 PM 51.8 °F 48.2 °F 88% 30.24 in 10.0 mi SW 6.9 mph - N/A   Mostly Cloudy
7:35 PM 51.8 °F 48.2 °F 88% 30.23 in 10.0 mi SW 8.1 mph - N/A   Mostly Cloudy
7:55 PM 51.8 °F 50.0 °F 94% 30.23 in 7.0 mi SW 8.1 mph - N/A   Mostly Cloudy
8:15 PM 51.8 °F 48.2 °F 88% 30.23 in 10.0 mi SSW 8.1 mph - N/A   Overcast
8:35 PM 51.8 °F 46.4 °F 82% 30.22 in 7.0 mi SSW 9.2 mph - N/A   Overcast
8:55 PM 51.8 °F 46.4 °F 82% 30.24 in 7.0 mi SW 8.1 mph - N/A   Overcast
9:15 PM 51.8 °F 48.2 °F 88% 30.23 in 10.0 mi SSW 10.4 mph - N/A   Overcast
9:35 PM 51.8 °F 48.2 °F 88% 30.22 in 10.0 mi SSW 9.2 mph - N/A   Overcast
9:55 PM 51.8 °F 48.2 °F 88% 30.22 in 7.0 mi SSW 10.4 mph - N/A Rain Rain
10:15 PM 51.8 °F 50.0 °F 94% 30.21 in 7.0 mi SSW 11.5 mph - N/A   Drizzle
10:35 PM 50.0 °F 50.0 °F 100% 30.21 in 7.0 mi SSW 12.7 mph - N/A Rain Light Rain
10:55 PM 50.0 °F 50.0 °F 100% 30.21 in 7.0 mi SSW 12.7 mph - N/A   Drizzle
11:15 PM 50.0 °F 50.0 °F 100% 30.21 in 4.0 mi SSW 11.5 mph - N/A   Heavy Drizzle
11:35 PM 50.0 °F 50.0 °F 100% 30.22 in 2.0 mi SW 12.7 mph - 0.01 in   Heavy Drizzle
11:55 PM 50.0 °F 50.0 °F 100% 30.21 in 2.0 mi SSW 15.0 mph 20.7 mph 0.01 in   Heavy Drizzle